User: anonymous   Login
Location: Bonn
(50.7330°N, 7.1000°E)
Time: 06:14:57
(UTC+01:00)
Language:

Iridium 84 - Orbit

View from above orbital plane
View from above orbital plane
View from above satellite
View from above satellite

Ground track
Ground track

The orbit data is extracted from the following two-line orbital elements,

1 25530U 98066D   15085.29517477  .00000033  00000-0  47709-5 0  9993
2 25530 086.3977 330.2246 0002081 083.1030 277.0403 14.34213194860349
Epoch (UTC): 26 March 2015 07:05:03
Eccentricity: 0.0002081
inclination: 86.3977°
perigee height: 776 km
apogee height: 779 km
right ascension of ascending node: 330.2246°
argument of perigee: 83.1030°
revolutions per day: 14.34213194
mean anomaly at epoch: 277.0403°
orbit number at epoch: 86034

The dashed part of the orbit path shows where the satellite is in the earth's shadow,  

DLR